DW0275 Weather Reports


Display with metric or nautical units.
time (UTC)temp
F
wind
direction
speed
MPH
gust
MPH
rain 1hr
in
rain 24hr
in
rain mn
in
humidity
%
barometer
mb
20260901230816 84 73 0.0 0.0 0.00 0.00 0.00 83 1015.7
20260901230334 84 55 0.0 0.0 0.00 0.00 0.00 83 1015.8
20260901230014 84 128 0.0 0.0 0.00 0.00 0.00 83 1015.7
20260901225831 85 127 0.0 2.0 0.00 0.00 0.00 83 1015.8
20260901225327 85 77 0.0 2.0 0.00 0.00 0.00 83 1015.6
20260901224825 85 147 1.0 3.0 0.00 0.00 0.00 83 1015.6
20260901224558 84 55 0.0 3.0 0.00 0.00 0.00 83 1015.5
20260901224323 85 84 2.0 3.0 0.00 0.00 0.00 84 1015.5
20260901223820 85 124 0.0 2.0 0.00 0.00 0.00 85 1015.6
20260901223318 85 47 0.0 4.0 0.00 0.00 0.00 85 1015.4
20260901223056 84 97 1.0 4.0 0.00 0.00 0.00 85 1015.3
20260901222815 84 120 2.0 4.0 0.00 0.00 0.00 85 1015.4
20260901222314 84 68 0.0 3.0 0.00 0.00 0.00 85 1015.3
20260901221833 84 155 0.0 3.0 0.00 0.00 0.00 85 1015.4
20260901221530 84 57 1.0 3.0 0.00 0.00 0.00 85 1015.3
20260901221316 84 51 1.0 3.0 0.00 0.00 0.00 86 1015.5
20260901220834 84 44 0.0 2.0 0.00 0.00 0.00 86 1015.7
20260901220332 84 49 0.0 1.0 0.00 0.00 0.00 87 1015.8
20260901220014 84 48 0.0 0.0 0.00 0.00 0.00 88 1015.7
20260901215831 84 49 0.0 2.0 0.00 0.00 0.00 88 1015.8
20260901215329 84 9 0.0 3.0 0.00 0.00 0.00 87 1015.6
20260901214826 84 23 0.0 3.0 0.00 0.00 0.00 88 1015.6
20260901214502 83 13 0.0 3.0 0.00 0.00 0.00 89 1015.6
20260901214324 84 353 0.0 2.0 0.00 0.00 0.00 89 1015.7
20260901213843 84 8 0.0 4.0 0.00 0.00 0.00 89 1015.7
20260901213322 83 42 2.0 4.0 0.00 0.00 0.00 89 1015.5
20260901213102 83 340 2.0 3.0 0.00 0.00 0.00 89 1015.5
20260901212820 83 27 0.0 3.0 0.00 0.00 0.00 89 1015.5
20260901212319 83 39 1.0 2.0 0.00 0.00 0.00 89 1015.4
20260901211922 83 25 0.0 2.0 0.00 0.00 0.00 89 1015.3
20260901211534 82 25 0.0 2.0 0.00 0.00 0.00 89 1015.2
20260901211335 83 25 1.0 2.0 0.00 0.00 0.00 89 1015.2
20260901210854 83 49 1.0 2.0 0.00 0.00 0.00 89 1015.1
20260901210331 83 43 1.0 2.0 0.00 0.00 0.00 90 1015.2
20260901210004 82 44 0.0 2.0 0.00 0.00 0.00 90 1015.0
20260901205829 83 40 0.0 2.0 0.00 0.00 0.00 90 1015.2
20260901205326 82 52 0.0 2.0 0.00 0.00 0.00 90 1015.2
20260901204823 82 41 0.0 0.0 0.00 0.00 0.00 90 1015.1
20260901204554 82 41 0.0 2.0 0.00 0.00 0.00 90 1015.0
20260901204321 82 41 0.0 2.0 0.00 0.00 0.00 91 1015.1
20260901203820 82 41 0.0 2.0 0.00 0.00 0.00 90 1015.0
20260901203318 81 43 1.0 3.0 0.00 0.00 0.00 90 1015.0
20260901203051 81 39 1.0 3.0 0.00 0.00 0.00 90 1014.9
20260901202817 82 43 2.0 3.0 0.00 0.00 0.00 90 1014.9
20260901202315 82 15 1.0 3.0 0.00 0.00 0.00 90 1015.1
20260901201834 81 53 1.0 1.0 0.00 0.00 0.00 90 1015.2
20260901201530 81 46 0.0 0.0 0.00 0.00 0.00 90 1015.1
20260901201330 81 46 0.0 2.0 0.00 0.00 0.00 90 1015.3
20260901200828 81 46 0.0 4.0 0.00 0.00 0.00 90 1015.4
20260901200346 81 56 2.0 4.0 0.00 0.00 0.00 89 1015.5
20260901200028 81 41 0.0 4.0 0.00 0.00 0.00 90 1015.3
20260901195823 81 54 1.0 4.0 0.00 0.00 0.00 89 1015.5
20260901195318 81 41 2.0 4.0 0.00 0.00 0.00 89 1015.4
20260901194834 81 45 1.0 3.0 0.00 0.00 0.00 90 1015.5
20260901194516 81 55 0.0 2.0 0.00 0.00 0.00 89 1015.4
20260901194352 81 115 0.0 2.0 0.00 0.00 0.00 90 1015.6
20260901193829 81 58 0.0 2.0 0.00 0.00 0.00 90 1015.5
20260901193328 81 154 0.0 0.0 0.00 0.00 0.00 90 1015.6
20260901193038 81 46 0.0 2.0 0.00 0.00 0.00 90 1015.5
20260901192844 81 44 0.0 2.0 0.00 0.00 0.00 90 1015.6
20260901192321 81 46 0.0 2.0 0.00 0.00 0.00 90 1015.8
20260901191838 81 50 0.0 2.0 0.00 0.00 0.00 90 1016.0
20260901191613 81 50 0.0 2.0 0.00 0.00 0.00 90 1015.8
20260901191355 81 50 0.0 2.0 0.00 0.00 0.00 90 1016.0
20260901190851 81 46 0.0 2.0 0.00 0.00 0.00 90 1015.9
20260901190328 81 123 0.0 0.0 0.00 0.00 0.00 90 1016.0
20260901190004 80 120 0.0 0.0 0.00 0.00 0.00 90 1015.9
20260901185845 80 56 0.0 0.0 0.00 0.00 0.00 90 1016.2
20260901185322 80 39 0.0 0.0 0.00 0.00 0.00 90 1016.4
20260901184820 80 39 0.0 0.0 0.00 0.00 0.00 89 1016.5
20260901184525 80 39 0.0 1.0 0.00 0.00 0.00 89 1016.5
20260901184319 80 360 0.0 1.0 0.00 0.00 0.00 89 1016.7
20260901183817 80 359 0.0 1.0 0.00 0.00 0.00 89 1016.5
20260901183330 80 53 0.0 0.0 0.00 0.00 0.00 89 1016.7
20260901183057 79 53 0.0 0.0 0.00 0.00 0.00 90 1016.7
20260901182826 79 53 0.0 0.0 0.00 0.00 0.00 90 1016.9
20260901182324 79 53 0.0 2.0 0.00 0.00 0.00 89 1017.0
20260901181822 79 53 1.0 4.0 0.00 0.00 0.00 90 1017.1
20260901181555 79 55 0.0 4.0 0.00 0.00 0.00 90 1017.0
20260901181320 79 41 1.0 4.0 0.00 0.00 0.00 89 1017.1
20260901180817 79 356 2.0 4.0 0.00 0.00 0.00 89 1017.2
20260901180333 79 353 2.0 5.0 0.00 0.00 0.00 88 1017.3
20260901180024 79 354 2.0 7.0 0.00 0.00 0.00 88 1017.3
20260901175832 79 20 1.0 7.0 0.00 0.00 0.00 88 1017.3
20260901175348 80 337 4.0 10.0 0.00 0.00 0.00 87 1017.4
20260901174824 80 321 6.0 10.0 0.00 0.00 0.00 86 1017.4
20260901174554 80 328 5.0 12.0 0.00 0.00 0.00 85 1017.3
20260901174340 81 347 6.0 12.0 0.00 0.00 0.00 85 1017.4
20260901173815 81 333 4.0 12.0 0.00 0.00 0.00 84 1017.4
20260901173334 82 20 5.0 15.0 0.00 0.00 0.00 83 1017.3
20260901173007 83 23 7.0 15.0 0.00 0.00 0.00 83 1017.0
20260901172831 84 24 9.0 15.0 0.00 0.00 0.00 82 1017.2
20260901172328 86 40 5.0 9.0 0.00 0.00 0.00 82 1017.0
20260901171824 87 91 5.0 9.0 0.00 0.00 0.00 82 1016.9
20260901171536 86 122 5.0 9.0 0.00 0.00 0.00 82 1016.7
20260901171342 87 141 5.0 9.0 0.00 0.00 0.00 82 1016.9
20260901170836 86 94 6.0 9.0 0.00 0.00 0.00 82 1016.9
20260901170352 86 125 4.0 9.0 0.00 0.00 0.00 82 1017.0
20260901170026 86 125 3.0 9.0 0.00 0.00 0.00 82 1017.0
20260901165829 87 145 4.0 9.0 0.00 0.00 0.00 82 1017.1
20260901165329 87 95 3.0 9.0 0.00 0.00 0.00 82 1017.2
20260901164824 87 136 3.0 7.0 0.00 0.00 0.00 82 1017.2
20260901164514 87 66 2.0 7.0 0.00 0.00 0.00 81 1017.0
20260901164321 88 139 3.0 7.0 0.00 0.00 0.00 81 1017.2
20260901163839 89 87 4.0 7.0 0.00 0.00 0.00 80 1017.1
20260901163333 89 4 0.0 0.0 0.00 0.00 0.00 78 1017.1
20260901163035 89 4 0.0 1.0 0.00 0.00 0.00 79 1017.0
20260901162829 90 4 0.0 1.0 0.00 0.00 0.00 79 1017.1
20260901162325 90 5 0.0 2.0 0.00 0.00 0.00 78 1017.1
20260901161822 90 331 0.0 1.0 0.00 0.00 0.00 78 1017.0
20260901161537 90 289 0.0 3.0 0.00 0.00 0.00 79 1016.9
20260901161319 90 289 0.0 3.0 0.00 0.00 0.00 79 1017.1
20260901160816 90 355 1.0 4.0 0.00 0.00 0.00 78 1017.1
20260901160334 90 10 2.0 5.0 0.00 0.00 0.00 79 1017.0
20260901160023 89 25 2.0 5.0 0.00 0.00 0.00 77 1016.9
20260901155851 90 52 2.0 5.0 0.00 0.00 0.00 77 1017.1
20260901155342 89 131 0.0 5.0 0.00 0.00 0.00 79 1017.1
20260901154818 89 350 2.0 5.0 0.00 0.00 0.00 78 1017.1
20260901154521 89 44 2.0 4.0 0.00 0.00 0.00 78 1017.0
20260901154334 90 18 2.0 4.0 0.00 0.00 0.00 77 1017.1
20260901153831 90 41 0.0 2.0 0.00 0.00 0.00 78 1017.1
20260901153327 90 40 0.0 3.0 0.00 0.00 0.00 79 1017.2
20260901153005 89 40 1.0 3.0 0.00 0.00 0.00 78 1017.1
20260901152823 90 19 1.0 3.0 0.00 0.00 0.00 79 1017.2
20260901152321 90 53 0.0 2.0 0.00 0.00 0.00 80 1017.3
20260901151817 90 124 1.0 2.0 0.00 0.00 0.00 79 1017.3
20260901151541 89 116 0.0 0.0 0.00 0.00 0.00 80 1017.2
20260901151333 90 150 0.0 0.0 0.00 0.00 0.00 81 1017.3
20260901150830 89 24 0.0 1.0 0.00 0.00 0.00 79 1017.3
20260901150348 89 22 0.0 4.0 0.00 0.00 0.00 80 1017.4
20260901150012 88 23 0.0 4.0 0.00 0.00 0.00 80 1017.2
20260901145824 89 332 2.0 4.0 0.00 0.00 0.00 79 1017.3
20260901145322 89 60 1.0 4.0 0.00 0.00 0.00 80 1017.3
20260901144819 89 130 1.0 5.0 0.00 0.00 0.00 81 1017.2
20260901144552 88 130 1.0 5.0 0.00 0.00 0.00 81 1017.1
20260901144315 88 357 1.0 5.0 0.00 0.00 0.00 81 1017.1
20260901143831 89 71 3.0 5.0 0.00 0.00 0.00 80 1017.1
20260901143347 89 118 0.0 1.0 0.00 0.00 0.00 82 1017.1
20260901143019 88 28 0.0 3.0 0.00 0.00 0.00 81 1017.0
20260901142842 88 7 0.0 3.0 0.00 0.00 0.00 81 1017.1
20260901142316 88 276 0.0 0.0 0.00 0.00 0.00 81 1017.0
20260901141832 88 8 0.0 2.0 0.00 0.00 0.00 82 1017.0
20260901141535 88 34 0.0 3.0 0.00 0.00 0.00 82 1016.8
20260901141350 88 291 0.0 3.0 0.00 0.00 0.00 82 1016.9
20260901140828 87 29 1.0 3.0 0.00 0.00 0.00 82 1016.8
20260901140326 87 3 1.0 3.0 0.00 0.00 0.00 82 1016.9
20260901140055 86 354 0.0 3.0 0.00 0.00 0.00 83 1016.7
20260901135842 87 354 2.0 3.0 0.00 0.00 0.00 82 1016.8
20260901135318 86 27 2.0 4.0 0.00 0.00 0.00 83 1016.8
20260901134835 86 348 1.0 5.0 0.00 0.00 0.00 83 1016.8
20260901134522 85 340 2.0 5.0 0.00 0.00 0.00 83 1016.6
20260901134352 86 40 3.0 5.0 0.00 0.00 0.00 83 1016.7
20260901133828 86 355 2.0 4.0 0.00 0.00 0.00 83 1016.8
20260901133322 86 14 3.0 4.0 0.00 0.00 0.00 83 1016.8
20260901133034 86 2 1.0 4.0 0.00 0.00 0.00 84 1016.6
20260901132839 86 13 1.0 6.0 0.00 0.00 0.00 83 1016.7
20260901132350 86 343 1.0 6.0 0.00 0.00 0.00 83 1016.7
20260901131826 85 351 1.0 5.0 0.00 0.00 0.00 84 1016.8
20260901131556 85 346 2.0 5.0 0.00 0.00 0.00 84 1016.6
20260901131324 85 349 1.0 5.0 0.00 0.00 0.00 84 1016.7
20260901130819 85 344 0.0 4.0 0.00 0.00 0.00 84 1016.7
20260901130045 85 20 0.0 3.0 0.00 0.00 0.00 85 1016.7
20260901125850 85 346 0.0 3.0 0.00 0.00 0.00 85 1016.8
20260901125326 85 360 0.0 0.0 0.00 0.00 0.00 86 1016.7
20260901124822 84 360 0.0 0.0 0.00 0.00 0.00 88 1016.7
20260901124520 83 360 0.0 0.0 0.00 0.00 0.00 89 1016.5
20260901124318 83 360 0.0 0.0 0.00 0.00 0.00 89 1016.8
20260901123835 82 360 0.0 0.0 0.00 0.00 0.00 89 1016.7
20260901123350 82 329 0.0 0.0 0.00 0.00 0.00 89 1016.6
20260901123039 81 329 0.0 0.0 0.00 0.00 0.00 89 1016.6
20260901122826 81 329 0.0 0.0 0.00 0.00 0.00 89 1016.6
20260901122321 81 329 0.0 0.0 0.00 0.00 0.00 89 1016.5
20260901121816 81 329 0.0 0.0 0.00 0.00 0.00 90 1016.5
20260901121549 80 329 0.0 1.0 0.00 0.00 0.00 91 1016.4
20260901121332 81 329 0.0 1.0 0.00 0.00 0.00 91 1016.5
20260901120828 80 329 0.0 1.0 0.00 0.00 0.00 91 1016.5
20260901120325 80 6 0.0 0.0 0.00 0.00 0.00 92 1016.5
20260901120042 80 352 0.0 0.0 0.00 0.00 0.00 92 1016.3
20260901115820 80 352 0.0 0.0 0.00 0.00 0.00 92 1016.5
20260901115316 80 352 0.0 0.0 0.00 0.00 0.00 93 1016.3
20260901114814 78 352 0.0 0.0 0.00 0.00 0.00 93 1016.3
20260901114513 78 352 0.0 0.0 0.00 0.00 0.00 93 1016.1
20260901114331 78 352 0.0 0.0 0.00 0.00 0.00 93 1016.2
20260901113828 78 352 0.0 0.0 0.00 0.00 0.00 93 1016.1
20260901113326 78 352 0.0 0.0 0.00 0.00 0.00 93 1016.2
20260901113103 77 352 0.0 0.0 0.00 0.00 0.00 93 1016.0
20260901112823 78 352 0.0 0.0 0.00 0.00 0.00 93 1016.1
20260901112319 78 352 0.0 0.0 0.00 0.00 0.00 93 1016.0
20260901111816 78 352 0.0 0.0 0.00 0.00 0.00 93 1015.9
20260901111602 77 352 0.0 0.0 0.00 0.00 0.00 93 1015.7
20260901111333 78 352 0.0 0.0 0.00 0.00 0.00 93 1015.8
20260901110829 78 350 0.0 0.0 0.00 0.00 0.00 93 1015.7
20260901110323 77 350 0.0 0.0 0.00 0.00 0.00 93 1015.8
20260901110037 77 350 0.0 0.0 0.00 0.00 0.00 93 1015.6
20260901105820 77 350 0.0 0.0 0.00 0.00 0.00 93 1015.8
20260901105319 78 350 0.0 0.0 0.00 0.00 0.00 93 1015.6
20260901104817 78 350 0.0 0.0 0.00 0.00 0.00 93 1015.8
20260901104521 77 350 0.0 0.0 0.00 0.00 0.00 92 1015.6
20260901104334 78 350 0.0 0.0 0.00 0.00 0.00 92 1015.8
20260901103831 78 350 0.0 1.0 0.00 0.00 0.00 93 1015.7
20260901103327 78 350 0.0 0.0 0.00 0.00 0.00 93 1015.8
20260901103011 77 350 0.0 0.0 0.00 0.00 0.00 92 1015.6
20260901102822 78 350 0.0 1.0 0.00 0.00 0.00 93 1015.8
20260901102338 78 350 0.0 1.0 0.00 0.00 0.00 93 1015.6
20260901101829 78 350 0.0 0.0 0.00 0.00 0.00 93 1015.7
20260901101532 77 350 0.0 1.0 0.00 0.00 0.00 93 1015.4
20260901101325 78 350 0.0 1.0 0.00 0.00 0.00 93 1015.7
20260901100843 78 350 0.0 1.0 0.00 0.00 0.00 93 1015.6
20260901100319 78 350 0.0 0.0 0.00 0.00 0.00 93 1015.6
20260901100056 77 350 0.0 0.0 0.00 0.00 0.00 93 1015.6
20260901095816 78 350 0.0 0.0 0.00 0.00 0.00 93 1015.8
20260901095333 78 351 0.0 0.0 0.00 0.00 0.00 93 1015.6
20260901094829 78 351 0.0 0.0 0.00 0.00 0.00 93 1015.6
20260901094539 77 351 0.0 0.0 0.00 0.00 0.00 93 1015.4
20260901094347 78 351 0.0 1.0 0.00 0.00 0.00 93 1015.5
20260901093823 78 351 0.0 1.0 0.00 0.00 0.00 93 1015.6
20260901093320 78 351 0.0 1.0 0.00 0.00 0.00 93 1015.4
20260901093003 77 351 0.0 1.0 0.00 0.00 0.00 93 1015.4
20260901092818 78 345 0.0 1.0 0.00 0.00 0.00 93 1015.5
20260901092315 78 349 0.0 1.0 0.00 0.00 0.00 93 1015.4
20260901091834 78 349 0.0 1.0 0.00 0.00 0.00 93 1015.4
20260901091547 77 349 0.0 0.0 0.00 0.00 0.00 93 1015.4
20260901091331 78 349 0.0 0.0 0.00 0.00 0.00 93 1015.5
20260901090826 78 349 0.0 0.0 0.00 0.00 0.00 93 1015.4
20260901090322 78 349 0.0 0.0 0.00 0.00 0.00 93 1015.5
20260901090039 77 349 0.0 0.0 0.00 0.00 0.00 93 1015.4
20260901085820 78 349 0.0 0.0 0.00 0.00 0.00 93 1015.5
20260901085336 78 349 0.0 0.0 0.00 0.00 0.00 93 1015.6
20260901084833 78 349 0.0 0.0 0.00 0.00 0.00 93 1015.7
20260901084559 77 349 0.0 0.0 0.00 0.00 0.00 93 1015.5
20260901084501 77 349 0.0 0.0 0.00 0.00 0.00 93 1015.6
20260901084330 78 349 0.0 0.0 0.00 0.00 0.00 93 1015.6
20260901083828 78 349 0.0 0.0 0.00 0.00 0.00 93 1015.6
20260901083325 78 349 0.0 0.0 0.00 0.00 0.00 93 1015.7
20260901083043 77 349 0.0 0.0 0.00 0.00 0.00 93 1015.6
20260901082840 78 349 0.0 0.0 0.00 0.00 0.00 93 1015.8
20260901082316 78 349 0.0 0.0 0.00 0.00 0.00 93 1015.6
20260901081839 78 349 0.0 0.0 0.00 0.00 0.00 93 1015.6
20260901081549 77 349 0.0 0.0 0.00 0.00 0.00 92 1015.6
20260901081354 78 349 0.0 0.0 0.00 0.00 0.00 93 1015.5
20260901080328 78 349 0.0 0.0 0.00 0.00 0.00 92 1015.5
20260901080021 77 349 0.0 0.0 0.00 0.00 0.00 92 1015.5
20260901075826 78 349 0.0 0.0 0.00 0.00 0.00 92 1015.6
20260901075341 78 349 0.0 0.0 0.00 0.00 0.00 92 1015.6
20260901074817 78 349 0.0 0.0 0.00 0.00 0.00 92 1015.8
20260901074543 78 349 0.0 0.0 0.00 0.00 0.00 92 1015.7
20260901074314 78 349 0.0 0.0 0.00 0.00 0.00 92 1015.8
20260901073833 78 349 0.0 0.0 0.00 0.00 0.00 92 1015.8
20260901073329 78 349 0.0 0.0 0.00 0.00 0.00 92 1015.9
20260901073029 78 349 0.0 0.0 0.00 0.00 0.00 92 1015.8
20260901072827 78 349 0.0 0.0 0.00 0.00 0.00 92 1015.9
20260901072339 78 349 0.0 0.0 0.00 0.00 0.00 92 1016.0
20260901071816 79 349 0.0 0.0 0.00 0.00 0.00 92 1016.1
20260901071551 78 349 0.0 0.0 0.00 0.00 0.00 92 1015.9
20260901071332 79 349 0.0 0.0 0.00 0.00 0.00 92 1016.0
20260901070829 79 349 0.0 0.0 0.00 0.00 0.00 92 1016.0
20260901070324 79 349 0.0 0.0 0.00 0.00 0.00 92 1016.1
20260901070034 79 349 0.0 0.0 0.00 0.00 0.00 92 1016.0
20260901065841 79 349 0.0 0.0 0.00 0.00 0.00 92 1016.1
20260901065336 79 345 0.0 0.0 0.00 0.00 0.00 92 1016.2
20260901064832 79 345 0.0 2.0 0.00 0.00 0.00 91 1016.0
20260901064537 79 3 0.0 2.0 0.00 0.00 0.00 91 1015.8
20260901064349 79 3 0.0 2.0 0.00 0.00 0.00 91 1016.0
20260901063825 79 110 0.0 0.0 0.00 0.00 0.00 91 1016.0
20260901063323 79 110 0.0 0.0 0.00 0.00 0.00 91 1016.1
20260901063110 78 110 0.0 0.0 0.00 0.00 0.00 91 1016.0
20260901063006 78 110 0.0 0.0 0.00 0.00 0.00 91 1016.0
20260901062820 79 110 0.0 0.0 0.00 0.00 0.00 91 1016.1
20260901062318 79 110 0.0 0.0 0.00 0.00 0.00 91 1016.1
20260901061815 79 110 0.0 0.0 0.00 0.00 0.00 91 1016.2
20260901061559 78 110 0.0 0.0 0.00 0.00 0.00 91 1016.0
20260901061332 79 110 0.0 0.0 0.00 0.00 0.00 91 1016.2
20260901060828 79 110 0.0 0.0 0.00 0.00 0.00 91 1016.2
20260901060345 79 110 0.0 0.0 0.00 0.00 0.00 91 1016.2
20260901060008 78 110 0.0 0.0 0.00 0.00 0.00 90 1016.0
20260901055841 79 110 0.0 0.0 0.00 0.00 0.00 90 1016.1
20260901055337 79 110 0.0 0.0 0.00 0.00 0.00 90 1016.3
20260901054833 79 110 0.0 0.0 0.00 0.00 0.00 90 1016.3
20260901054554 79 110 0.0 0.0 0.00 0.00 0.00 90 1016.2
20260901054351 79 110 0.0 0.0 0.00 0.00 0.00 90 1016.4
20260901053846 79 110 0.0 0.0 0.00 0.00 0.00 90 1016.5
20260901053320 79 110 0.0 0.0 0.00 0.00 0.00 90 1016.5
20260901053108 78 110 0.0 0.0 0.00 0.00 0.00 90 1016.3
20260901052819 79 128 0.0 0.0 0.00 0.00 0.00 90 1016.5
20260901052315 79 128 0.0 0.0 0.00 0.00 0.00 90 1016.4
20260901051830 79 128 0.0 0.0 0.00 0.00 0.00 90 1016.5
20260901051545 79 128 0.0 0.0 0.00 0.00 0.00 90 1016.4
20260901051327 79 128 0.0 0.0 0.00 0.00 0.00 90 1016.5
20260901050824 79 128 0.0 0.0 0.00 0.00 0.00 90 1016.5
20260901050323 79 128 0.0 0.0 0.00 0.00 0.00 90 1016.5
20260901050027 79 128 0.0 0.0 0.00 0.00 0.00 89 1016.5
20260901045819 79 128 0.0 0.0 0.00 0.00 0.00 89 1016.7
20260901045315 79 128 0.0 0.0 0.00 0.00 0.00 89 1016.8
20260901044832 79 128 0.0 0.0 0.00 0.00 0.00 89 1016.7
20260901044510 78 128 0.0 0.0 0.00 0.00 0.00 89 1016.8
20260901044328 79 128 0.0 0.0 0.00 0.00 0.00 89 1016.9
20260901043845 79 128 0.0 0.0 0.00 0.00 0.00 89 1017.0
20260901043320 79 128 0.0 0.0 0.00 0.00 0.00 89 1017.1
20260901043037 78 128 0.0 0.0 0.00 0.00 0.00 89 1016.9
20260901042816 79 128 0.0 0.0 0.00 0.00 0.00 89 1017.1
20260901042332 79 128 0.0 0.0 0.00 0.00 0.00 89 1017.2
20260901041830 79 128 0.0 0.0 0.00 0.00 0.00 89 1017.2
20260901041519 79 128 0.0 0.0 0.00 0.00 0.00 88 1017.2
20260901041326 80 128 0.0 0.0 0.00 0.00 0.00 88 1017.3
20260901040823 80 128 0.0 0.0 0.00 0.00 0.00 88 1017.2
20260901040318 80 128 0.0 0.0 0.00 0.00 0.00 88 1017.3
20260901040011 79 128 0.0 0.0 0.00 0.00 0.00 88 1017.2
20260901035836 80 128 0.0 0.0 0.00 0.00 0.00 88 1017.3
20260901035353 80 128 0.0 0.0 0.00 0.00 0.00 89 1017.4
20260901034830 80 128 0.0 0.0 0.00 0.00 0.00 89 1017.4
20260901034525 80 128 0.0 0.0 0.00 0.00 0.00 89 1017.3
20260901034327 80 128 0.0 0.0 0.00 0.00 0.00 89 1017.5
20260901033823 80 128 0.0 0.0 0.00 0.00 0.00 89 1017.4
20260901033318 80 130 0.0 1.0 0.00 0.00 0.00 89 1017.5
20260901033016 80 105 0.0 1.0 0.00 0.00 0.00 89 1017.5
20260901032814 81 154 0.0 0.0 0.00 0.00 0.00 89 1017.5
20260901032358 81 154 0.0 3.0 0.00 0.00 0.00 89 1017.5
20260901031853 81 154 1.0 3.0 0.00 0.00 0.00 89 1017.5
20260901031517 81 124 0.0 6.0 0.00 0.00 0.00 90 1017.4
20260901031330 81 129 1.0 6.0 0.00 0.00 0.00 90 1017.5
20260901030827 81 119 1.0 6.0 0.00 0.00 0.00 90 1017.7
20260901030323 81 356 0.0 0.0 0.00 0.00 0.00 90 1017.6
20260901030006 81 356 0.0 0.0 0.00 0.00 0.00 89 1017.6
20260901025821 81 356 0.0 0.0 0.00 0.00 0.00 89 1017.6
20260901025317 81 356 0.0 0.0 0.00 0.00 0.00 89 1017.7
20260901024815 81 356 0.0 0.0 0.00 0.00 0.00 89 1017.7
20260901024553 81 356 0.0 0.0 0.00 0.00 0.00 89 1017.7
20260901024332 81 356 0.0 0.0 0.00 0.00 0.00 89 1017.8
20260901023849 81 356 0.0 0.0 0.00 0.00 0.00 89 1017.8
20260901023324 81 2 0.0 0.0 0.00 0.00 0.00 88 1017.8
20260901023012 81 2 0.0 0.0 0.00 0.00 0.00 88 1017.8
20260901022821 81 13 0.0 0.0 0.00 0.00 0.00 88 1017.8
20260901022317 81 15 0.0 0.0 0.00 0.00 0.00 88 1017.8
20260901021814 81 15 0.0 0.0 0.00 0.00 0.00 88 1017.8
20260901021604 81 15 0.0 0.0 0.00 0.00 0.00 88 1017.6
20260901021332 81 15 0.0 0.0 0.00 0.00 0.00 88 1017.6
20260901020828 81 20 0.0 0.0 0.00 0.00 0.00 88 1017.4
20260901020325 81 20 0.0 0.0 0.00 0.00 0.00 88 1017.4
20260901020047 81 20 0.0 0.0 0.00 0.00 0.00 87 1017.3
20260901015822 82 20 0.0 0.0 0.00 0.00 0.00 87 1017.4
20260901015335 82 20 0.0 0.0 0.00 0.00 0.00 87 1017.3
20260901014853 82 20 0.0 0.0 0.00 0.00 0.00 88 1017.2
20260901014545 81 46 0.0 0.0 0.00 0.00 0.00 88 1017.1
20260901014328 82 46 0.0 0.0 0.00 0.00 0.00 88 1017.2
20260901013824 82 46 0.0 0.0 0.00 0.00 0.00 88 1017.1
20260901013321 81 46 0.0 0.0 0.00 0.00 0.00 88 1017.2
20260901013035 81 46 0.0 0.0 0.00 0.00 0.00 88 1017.1
20260901012817 82 46 0.0 0.0 0.00 0.00 0.00 88 1017.1
20260901012334 82 46 0.0 0.0 0.00 0.00 0.00 88 1017.1
20260901011830 82 46 0.0 0.0 0.00 0.00 0.00 88 1017.1
20260901011518 81 46 0.0 0.0 0.00 0.00 0.00 88 1017.1
20260901011329 82 46 0.0 1.0 0.00 0.00 0.00 88 1017.1
20260901010823 82 46 0.0 2.0 0.00 0.00 0.00 88 1017.0
20260901010321 82 46 0.0 3.0 0.00 0.00 0.00 88 1016.9
20260901010035 81 46 1.0 3.0 0.00 0.03 0.00 89 1016.8
20260901005837 82 46 0.0 2.0 0.00 0.03 0.00 89 1016.8
20260901005332 82 25 1.0 4.0 0.00 0.03 0.00 89 1016.7
20260901004829 82 24 1.0 4.0 0.00 0.03 0.00 89 1016.7
20260901004505 81 349 0.0 3.0 0.00 0.03 0.00 89 1016.7
20260901004345 82 336 1.0 2.0 0.00 0.03 0.00 89 1016.9
20260901003821 82 13 0.0 3.0 0.00 0.03 0.00 90 1016.9
20260901003317 82 337 0.0 2.0 0.00 0.03 0.00 90 1016.6
20260901003022 81 352 0.0 1.0 0.00 0.03 0.00 90 1016.5
20260901002836 82 6 0.0 1.0 0.00 0.03 0.00 90 1016.6
20260901002332 82 6 0.0 2.0 0.00 0.03 0.00 90 1016.7
20260901001831 82 356 1.0 2.0 0.00 0.03 0.00 90 1016.7
20260901001541 81 4 0.0 3.0 0.00 0.03 0.00 90 1016.5
20260901001348 82 339 1.0 3.0 0.00 0.03 0.00 90 1016.5
20260901000825 82 333 0.0 3.0 0.00 0.03 0.00 90 1016.6
20260901000322 82 349 0.0 4.0 0.00 0.03 0.00 89 1016.6
20260901000008 82 350 0.0 4.0 0.00 0.08 0.00 89 1016.4
20260831235839 82 349 1.0 4.0 0.00 0.08 0.00 89 1016.5
20260831235315 82 19 2.0 4.0 0.00 0.08 0.00 89 1016.4
20260831234832 82 349 1.0 3.0 0.00 0.08 0.00 89 1016.4
20260831234528 82 9 0.0 1.0 0.00 0.08 0.00 89 1016.4
20260831234328 82 37 0.0 1.0 0.00 0.08 0.00 89 1016.4
20260831233842 82 39 0.0 0.0 0.00 0.08 0.00 88 1016.4
20260831233317 83 39 0.0 0.0 0.00 0.08 0.00 88 1016.4
20260831233056 82 39 0.0 0.0 0.00 0.08 0.00 87 1016.3
20260831232815 83 39 0.0 0.0 0.00 0.08 0.00 87 1016.4
20260831232329 83 39 0.0 2.0 0.00 0.08 0.00 87 1016.4
20260831231826 83 39 0.0 2.0 0.00 0.08 0.00 86 1016.3
20260831231551 82 39 0.0 2.0 0.00 0.08 0.00 86 1016.2
20260831231322 83 10 0.0 0.0 0.00 0.08 0.00 86 1016.3